Location: Azul
(36.7830°S, 59.8500°W)
Time: 12:10:16
(UTC-03:00)

BEESAT 3 - Pass Details

Date: 26 October 2021
Orbit: 477 x 511 km, 64.9° (Epoch: 28 November)

Event Time Altitude Azimuth Distance (km) Brightness Sun altitude
Rises 04:20:28 0° 211° (SSW) 2,572 ? -19.1°
Reaches altitude 10° 04:22:38 10° 211° (SSW) 1,681 ? -18.7°
Maximum altitude 04:26:23 86° 295° (WNW) 492 ? -18.1°
Drops below altitude 10° 04:30:05 10° 27° (NNE) 1,656 ? -17.4°
Sets 04:32:12 0° 28° (NNE) 2,528 ? -17.1°
